IRIDIUM 920 [-]

Last updated on Wed Jun 28 2023 00:03:01 GMT+0000 (Coordinated Universal Time)

1 24871U 97034C 23177.92562196 .00000611 00000+0 18698-3 0 9997 2 24871 86.3995 158.6757 0009725 306.4758 53.5544 14.40221548362984
UTC large
Height (km)
Speed (km/s)
/
Latitude / Longitude
Inclination (degrees)
Orbital Period (minutes)
Azimuth
Elevation
Range (km)
Doppler Factor

Next 0 passes for location: London (51.5072 / 0.1276)

Sorry there are no passes over London.